KB9ZI Weather Reports


time (UTC)temp
F
wind
direction
speed
knots
gust
knots
rain 1hr
in
rain 24hr
in
rain mn
in
humidity
%
barometer
mb
20260504070343 57 237 0.0 5.2 0.00 0.00 0.00 50 999.5
20260504070117 57 213 0.0 6.1 0.00 0.00 0.00 50 999.7
20260504060204 0 0.0 0.0 0.00 0.00 0.00 1001.0
20260504050702 49 257 0.0 0.0 0.00 0.00 0.00 74 1001.7
20260504050502 49 257 0.0 0.0 0.00 0.00 0.00 74 1001.8
20260504050403 49 257 0.0 0.0 0.00 0.00 0.00 74 1001.9
20260504050229 49 257 0.0 0.0 0.00 0.00 0.00 73 1001.8
20260504045906 49 257 0.0 0.0 0.00 0.00 0.00 73 1001.9
20260504045831 49 257 0.0 0.0 0.00 0.00 0.00 73 1001.9
20260504045727 49 257 0.0 0.0 0.00 0.00 0.00 73 1001.9
20260504045410 49 257 0.0 0.0 0.00 0.00 0.00 73 1002.0
20260504045405 49 257 0.0 0.0 0.00 0.00 0.00 73 1002.0
20260504045202 49 257 0.0 0.0 0.00 0.00 0.00 73 1002.0
20260504045008 49 257 0.0 0.0 0.00 0.00 0.00 73 1002.1
20260504044853 49 257 0.0 0.0 0.00 0.00 0.00 73 1002.1
20260504044802 49 257 0.0 0.0 0.00 0.00 0.00 73 1002.1
20260504044603 49 257 0.0 0.0 0.00 0.00 0.00 73 1002.1
20260504044350 49 257 0.0 0.0 0.00 0.00 0.00 73 1002.2
20260504044156 49 257 0.0 0.0 0.00 0.00 0.00 72 1002.2
20260504043945 49 257 0.0 0.0 0.00 0.00 0.00 72 1002.3
20260504043847 49 257 0.0 0.0 0.00 0.00 0.00 72 1002.3
20260504043733 50 257 0.0 0.0 0.00 0.00 0.00 69 1002.3
20260504043535 50 257 0.0 0.0 0.00 0.00 0.00 69 1002.4
20260504043335 50 257 0.0 0.0 0.00 0.00 0.00 69 1002.4
20260504043110 50 257 0.0 0.0 0.00 0.00 0.00 69 1002.4
20260504042947 50 257 0.0 0.0 0.00 0.00 0.00 69 1002.4
20260504042837 50 257 0.0 0.0 0.00 0.00 0.00 69 1002.5
20260504042647 50 257 0.0 0.0 0.00 0.00 0.00 69 1002.5
20260504042432 50 257 0.0 0.0 0.00 0.00 0.00 69 1002.5
20260504042330 50 257 0.0 0.0 0.00 0.00 0.00 69 1002.5
20260504042232 50 257 0.0 0.0 0.00 0.00 0.00 67 1002.6
20260504042036 50 257 0.0 0.0 0.00 0.00 0.00 67 1002.6
20260504041806 50 257 0.0 0.0 0.00 0.00 0.00 67 1002.6
20260504041618 50 257 0.0 0.0 0.00 0.00 0.00 67 1002.6
20260504041614 50 257 0.0 0.0 0.00 0.00 0.00 67 1002.6
20260504041544 50 257 0.0 0.0 0.00 0.00 0.00 67 1002.6
20260504041250 50 257 0.0 0.0 0.00 0.00 0.00 67 1002.6
20260504041157 50 257 0.0 0.0 0.00 0.00 0.00 67 1002.7
20260504041112 50 257 0.0 0.0 0.00 0.00 0.00 67 1002.7
20260504040734 51 257 0.0 0.0 0.00 0.00 0.00 67 1002.7
20260504040535 51 257 0.0 0.0 0.00 0.00 0.00 67 1002.7
20260504040334 51 257 0.0 0.0 0.00 0.00 0.00 67 1002.8
20260504040237 51 257 0.0 0.0 0.00 0.00 0.00 68 1002.9
20260504040141 51 257 0.0 0.0 0.00 0.00 0.00 63 1002.9
20260504040108 51 257 0.0 0.0 0.00 0.00 0.00 68 1002.9
20260504035732 51 257 0.0 0.0 0.00 0.00 0.00 63 1002.9
20260504035532 51 257 0.0 0.0 0.00 0.00 0.00 63 1003.0
20260504035317 51 257 0.0 0.0 0.00 0.00 0.00 63 1003.0
20260504035131 51 257 0.0 0.0 0.00 0.00 0.00 63 1003.0
20260504035111 52 257 0.0 0.0 0.00 0.00 0.00 63 1003.1
20260504035049 51 257 0.0 0.0 0.00 0.00 0.00 63 1003.1
20260504034735 52 257 0.0 0.0 0.00 0.00 0.00 63 1003.1
20260504034622 52 257 0.0 0.0 0.00 0.00 0.00 63 1003.1
20260504034303 52 257 0.0 0.0 0.00 0.00 0.00 63 1003.2
20260504034117 52 257 0.0 0.0 0.00 0.00 0.00 63 1003.3
20260504034105 52 257 0.0 0.0 0.00 0.00 0.00 63 1003.3
20260504034038 52 257 0.0 0.0 0.00 0.00 0.00 63 1003.2
20260504033718 52 257 0.0 0.0 0.00 0.00 0.00 63 1003.3
20260504033509 52 257 0.0 0.0 0.00 0.00 0.00 58 1003.3
20260504033308 52 257 0.0 0.0 0.00 0.00 0.00 58 1003.4
20260504033107 52 257 0.0 0.0 0.00 0.00 0.00 58 1003.4
20260504033010 52 257 0.0 0.0 0.00 0.00 0.00 58 1003.4
20260504032708 52 257 0.0 0.0 0.00 0.00 0.00 58 1003.5
20260504032519 53 257 0.0 0.0 0.00 0.00 0.00 58 1003.4
20260504032513 53 257 0.0 0.0 0.00 0.00 0.00 58 1003.5
20260504032443 53 257 0.0 0.0 0.00 0.00 0.00 58 1003.4
20260504032032 53 257 0.0 0.0 0.00 0.00 0.00 58 1003.5
20260504031832 53 257 0.0 0.0 0.00 0.00 0.00 58 1003.5
20260504031725 53 257 0.0 0.9 0.00 0.00 0.00 58 1003.4
20260504031631 53 257 0.0 1.7 0.00 0.00 0.00 58 1003.5
20260504031454 53 257 0.0 1.7 0.00 0.00 0.00 58 1003.6
20260504031439 53 257 0.0 1.7 0.00 0.00 0.00 58 1003.5
20260504031005 53 257 0.0 1.7 0.00 0.00 0.00 58 1003.5
20260504030807 53 257 0.0 1.7 0.00 0.00 0.00 58 1003.6
20260504030635 53 257 0.0 0.9 0.00 0.00 0.00 58 1003.6
20260504030604 53 257 0.0 0.9 0.00 0.00 0.00 58 1003.6
20260504030434 54 257 0.0 0.0 0.00 0.00 0.00 57 1003.6
20260504030422 54 257 0.0 0.0 0.00 0.00 0.00 57 1003.6
20260504030353 54 257 0.0 0.0 0.00 0.00 0.00 57 1003.6
20260504025957 54 257 0.0 0.0 0.00 0.00 0.00 56 1003.7
20260504025755 54 257 0.0 0.0 0.00 0.00 0.00 56 1003.7
20260504025644 54 257 0.0 0.0 0.00 0.00 0.00 56 1003.8
20260504025633 54 257 0.0 0.0 0.00 0.00 0.00 56 1003.8
20260504025341 54 257 0.0 0.0 0.00 0.00 0.00 56 1003.7
20260504025138 54 257 0.0 0.0 0.00 0.00 0.00 56 1003.8
20260504024937 54 257 0.0 0.0 0.00 0.00 0.00 55 1003.8
20260504024739 55 257 0.0 0.0 0.00 0.00 0.00 55 1003.7
20260504024636 55 257 0.0 0.0 0.00 0.00 0.00 56 1003.7
20260504024538 55 257 0.0 0.0 0.00 0.00 0.00 57 1003.7
20260504024419 56 257 0.0 0.0 0.00 0.00 0.00 52 1003.7
20260504024413 56 257 0.0 0.0 0.00 0.00 0.00 52 1003.8
20260504024346 56 257 0.0 0.0 0.00 0.00 0.00 52 1003.7
20260504023934 56 257 0.0 0.0 0.00 0.00 0.00 52 1003.7
20260504023728 56 257 0.0 0.0 0.00 0.00 0.00 52 1003.8
20260504023620 56 257 0.0 0.0 0.00 0.00 0.00 52 1003.8
20260504023508 56 257 0.0 0.0 0.00 0.00 0.00 52 1003.8
20260504023349 56 257 0.0 0.0 0.00 0.00 0.00 52 1003.8
20260504023338 56 257 0.0 0.0 0.00 0.00 0.00 52 1003.8
20260504023035 56 257 0.0 0.0 0.00 0.00 0.00 52 1003.8
20260504022836 56 257 0.0 0.0 0.00 0.00 0.00 52 1003.8
20260504022639 56 257 0.0 0.0 0.00 0.00 0.00 52 1003.8
20260504022605 56 257 0.0 0.0 0.00 0.00 0.00 52 1003.8
20260504022511 56 257 0.0 0.0 0.00 0.00 0.00 51 1003.8
20260504022359 57 257 0.0 0.0 0.00 0.00 0.00 51 1003.8
20260504022331 56 257 0.0 0.0 0.00 0.00 0.00 51 1003.8
20260504022003 57 257 0.0 0.0 0.00 0.00 0.00 51 1003.8
20260504021805 57 257 0.0 0.0 0.00 0.00 0.00 50 1003.8
20260504021612 57 257 0.0 0.0 0.00 0.00 0.00 50 1003.8
20260504021559 57 257 0.0 0.0 0.00 0.00 0.00 50 1003.8
20260504021349 57 257 0.0 0.0 0.00 0.00 0.00 49 1003.8
20260504021150 57 257 0.0 0.0 0.00 0.00 0.00 49 1003.8
20260504021118 57 257 0.0 0.0 0.00 0.00 0.00 49 1003.8
20260504020942 57 257 0.0 0.0 0.00 0.00 0.00 50 1003.8
20260504020836 59 257 0.0 0.0 0.00 0.00 0.00 47 1003.8
20260504020624 59 257 0.0 0.0 0.00 0.00 0.00 47 1003.8
20260504020532 59 257 0.0 0.0 0.00 0.00 0.00 47 1003.8
20260504020332 59 257 0.0 0.0 0.00 0.00 0.00 47 1003.8
20260504015932 59 257 0.0 0.0 0.00 0.00 0.00 47 1003.8
20260504015702 59 257 0.0 0.0 0.00 0.00 0.00 50 1003.8
20260504015608 59 257 0.0 0.0 0.00 0.00 0.00 50 1003.9
20260504015603 59 257 0.0 0.0 0.00 0.00 0.00 50 1003.8
20260504015304 59 257 0.0 0.0 0.00 0.00 0.00 45 1003.8
20260504015104 60 257 0.0 0.9 0.00 0.00 0.00 45 1003.8
20260504014854 60 257 0.0 1.7 0.00 0.00 0.00 45 1003.8
20260504014658 60 257 0.0 1.7 0.00 0.00 0.00 43 1003.8
20260504014556 61 257 0.0 1.7 0.00 0.00 0.00 43 1003.9
20260504014456 61 257 0.0 1.7 0.00 0.00 0.00 43 1003.8
20260504014258 61 257 0.0 1.7 0.00 0.00 0.00 43 1004.0
20260504014039 0 257 0.0 1.7 0.00 0.00 0.00 1004.0
20260504013957 62 257 0.0 0.0 0.00 0.00 0.00 48 1004.0
20260504013640 62 257 0.0 0.0 0.00 0.00 0.00 48 1004.0
20260504013534 62 257 0.0 0.0 0.00 0.00 0.00 48 1004.0
20260504013436 62 257 0.0 0.0 0.00 0.00 0.00 48 1004.0
20260504013236 62 257 0.0 0.0 0.00 0.00 0.00 48 1004.2
20260504013028 62 257 0.0 0.9 0.00 0.00 0.00 48 1004.2
20260504012836 63 257 0.0 0.9 0.00 0.00 0.00 48 1004.2
20260504012637 63 257 0.0 0.9 0.00 0.00 0.00 48 1004.2
20260504012529 63 257 0.0 0.9 0.00 0.00 0.00 48 1004.3
20260504012439 64 257 0.0 0.9 0.00 0.00 0.00 41 1004.3
20260504012335 64 257 0.0 0.9 0.00 0.00 0.00 41 1004.3
20260504012037 64 257 0.0 0.9 0.00 0.00 0.00 41 1004.3
20260504012032 64 257 0.0 0.9 0.00 0.00 0.00 41 1004.2
20260504011836 65 257 0.0 0.0 0.00 0.00 0.00 49 1004.3
20260504011633 65 257 0.0 0.0 0.00 0.00 0.00 42 1004.2
20260504011527 65 257 0.0 0.0 0.00 0.00 0.00 42 1004.2
20260504011434 66 257 0.0 0.9 0.00 0.00 0.00 42 1004.2
20260504011235 66 257 0.0 0.9 0.00 0.00 0.00 42 1004.2
20260504011029 66 257 0.0 0.9 0.00 0.00 0.00 42 1004.2
20260504010934 66 257 0.0 0.9 0.00 0.00 0.00 42 1004.2
20260504010627 66 257 0.0 0.9 0.00 0.00 0.00 42 1004.0
20260504010519 66 257 0.0 0.9 0.00 0.00 0.00 36 1004.2
20260504010425 66 257 0.0 0.9 0.00 0.00 0.00 36 1004.2
20260504010228 66 257 0.0 0.9 0.00 0.00 0.00 41 1004.2
20260504010028 67 257 0.0 1.7 0.00 0.00 0.00 33 1004.3
20260504010011 67 257 0.0 1.7 0.00 0.00 0.00 33 1004.2
20260504005827 67 257 0.0 1.7 0.00 0.00 0.00 33 1004.3
20260504005604 67 257 0.0 2.6 0.00 0.00 0.00 33 1004.2
20260504005512 67 257 0.0 2.6 0.00 0.00 0.00 33 1004.2
20260504005407 67 257 0.0 2.6 0.00 0.00 0.00 33 1004.2
20260504005231 67 257 0.0 2.6 0.00 0.00 0.00 33 1004.3
20260504005011 67 257 0.0 2.6 0.00 0.00 0.00 33 1004.3
20260504004930 67 257 0.0 2.6 0.00 0.00 0.00 33 1004.3
20260504004756 67 257 0.0 2.6 0.00 0.00 0.00 31 1004.2
20260504004750 67 257 0.0 2.6 0.00 0.00 0.00 32 1004.3
20260504004723 67 257 0.0 2.6 0.00 0.00 0.00 31 1004.2
20260504004315 67 257 0.0 2.6 0.00 0.00 0.00 33 1004.3
20260504004113 68 257 0.0 2.6 0.00 0.00 0.00 32 1004.2
20260504004014 68 255 0.0 2.6 0.00 0.00 0.00 32 1004.4
20260504004003 68 255 0.0 2.6 0.00 0.00 0.00 32 1004.4
20260504003757 68 255 0.0 4.3 0.00 0.00 0.00 32 1004.3
20260504003749 68 255 0.0 2.6 0.00 0.00 0.00 32 1004.3
20260504003722 68 255 0.0 4.3 0.00 0.00 0.00 32 1004.3
20260504003318 68 255 0.0 5.2 0.00 0.00 0.00 32 1004.3
20260504003112 68 255 0.0 5.2 0.00 0.00 0.00 32 1004.3
20260504002937 68 255 0.0 5.2 0.00 0.00 0.00 31 1004.4
20260504002907 68 255 0.0 5.2 0.00 0.00 0.00 31 1004.3
20260504002733 69 250 0.0 5.2 0.00 0.00 0.00 31 1004.4
20260504002723 68 255 0.0 5.2 0.00 0.00 0.00 31 1004.4
20260504002651 69 252 0.0 5.2 0.00 0.00 0.00 30 1004.4
20260504002409 0 248 0.0 1.7 0.00 0.00 0.00 1004.3
20260504002107 68 248 0.0 4.3 0.00 0.00 0.00 31 1004.5
20260504001934 68 248 0.0 4.3 0.00 0.00 0.00 31 1004.5
20260504001856 68 248 0.0 4.3 0.00 0.00 0.00 31 1004.5
20260504001657 68 248 0.0 5.2 0.00 0.00 0.00 31 1004.5
20260504001433 68 248 0.0 13.0 0.00 0.00 0.00 31 1004.5
20260504001232 68 261 0.0 13.0 0.00 0.00 0.00 31 1004.5
20260504001033 68 265 0.0 13.0 0.00 0.00 0.00 32 1004.5
20260504000932 69 241 0.0 13.0 0.00 0.00 0.00 31 1004.5
20260504000832 69 241 0.0 13.0 0.00 0.00 0.00 31 1004.5
20260504000811 69 221 0.0 13.0 0.00 0.00 0.00 33 1004.5
20260504000723 69 250 0.0 5.2 0.00 0.00 0.00 30 1004.4
20260504000638 69 250 0.0 5.2 0.00 0.00 0.00 30 1004.4
20260504000236 69 221 0.0 5.2 0.00 0.00 0.00 31 1004.4
20260504000016 69 238 0.0 5.2 0.00 0.00 0.00 31 1004.5
20260503235918 69 251 0.0 5.2 0.00 0.00 0.00 32 1004.4
20260503235815 69 257 0.0 5.2 0.00 0.00 0.00 30 1004.5
20260503235718 70 262 0.0 9.6 0.00 0.00 0.00 30 1004.4
20260503235659 70 255 0.0 9.6 0.00 0.00 0.00 32 1004.4
20260503235624 70 262 0.0 9.6 0.00 0.00 0.00 30 1004.4
20260503235214 70 262 0.0 9.6 0.00 0.00 0.00 31 1004.3
20260503235004 70 251 0.0 9.6 0.00 0.00 0.00 31 1004.4
20260503234910 70 228 0.0 9.6 0.00 0.00 0.00 29 1004.4
20260503234804 70 227 0.0 9.6 0.00 0.00 0.00 29 1004.4
20260503234744 70 243 0.0 9.6 0.00 0.00 0.00 29 1004.4
20260503234700 70 250 0.0 9.6 0.00 0.00 0.00 29 1004.5
20260503234618 70 250 0.0 9.6 0.00 0.00 0.00 29 1004.5
20260503234206 71 226 0.0 9.6 0.00 0.00 0.00 29 1004.4
20260503233956 71 219 0.0 9.6 0.00 0.00 0.00 29 1004.5
20260503233859 71 223 0.0 9.6 0.00 0.00 0.00 29 1004.5
20260503233801 71 272 0.0 8.7 0.00 0.00 0.00 29 1004.5
20260503233602 72 231 0.0 0.0 0.00 0.00 0.00 30 1004.5
20260503233400 72 241 0.0 0.0 0.00 0.00 0.00 32 1004.6
20260503233200 72 230 0.0 2.6 0.00 0.00 0.00 32 1004.5
20260503233059 72 230 0.0 2.6 0.00 0.00 0.00 32 1004.5
20260503232843 72 230 0.0 2.6 0.00 0.00 0.00 32 1004.6
20260503232746 72 230 0.0 2.6 0.00 0.00 0.00 32 1004.6
20260503232622 72 230 0.0 2.6 0.00 0.00 0.00 32 1004.7
20260503232615 72 230 0.0 2.6 0.00 0.00 0.00 32 1004.6
20260503232549 72 230 0.0 2.6 0.00 0.00 0.00 32 1004.7
20260503232145 72 63 0.0 1.7 0.00 0.00 0.00 33 1004.7
20260503231945 72 63 0.0 2.6 0.00 0.00 0.00 33 1004.7
20260503231832 72 63 0.0 2.6 0.00 0.00 0.00 33 1004.7
20260503231734 72 63 0.0 2.6 0.00 0.00 0.00 33 1004.8
20260503231633 72 61 0.0 2.6 0.00 0.00 0.00 30 1004.8
20260503231610 72 61 0.0 2.6 0.00 0.00 0.00 30 1004.8
20260503231547 72 61 0.0 2.6 0.00 0.00 0.00 30 1004.8
20260503231133 72 42 0.0 2.6 0.00 0.00 0.00 32 1004.9
20260503231041 72 210 0.0 0.0 0.00 0.00 0.00 29 1004.8
20260503230802 72 206 0.0 0.0 0.00 0.00 0.00 29 1004.8
20260503230734 72 206 0.0 0.0 0.00 0.00 0.00 29 1004.9
20260503230554 72 206 0.0 3.5 0.00 0.00 0.00 29 1005.0
20260503230542 72 206 0.0 2.6 0.00 0.00 0.00 29 1004.9
20260503230519 72 206 0.0 3.5 0.00 0.00 0.00 29 1005.0
20260503230107 72 206 0.0 3.5 0.00 0.00 0.00 29 1004.9
20260503225907 72 245 0.0 3.5 0.00 0.00 0.00 29 1004.9
20260503225802 72 245 0.0 3.5 0.00 0.00 0.00 29 1004.8
20260503225634 72 245 0.0 3.5 0.00 0.00 0.00 29 1004.9
20260503225604 72 192 0.0 0.0 0.00 0.00 0.00 34 1005.0
20260503225559 72 192 0.0 0.0 0.00 0.00 0.00 34 1005.0
20260503225531 72 244 0.0 2.6 0.00 0.00 0.00 30 1004.8
20260503225017 72 192 0.0 0.0 0.00 0.00 0.00 34 1004.9
20260503224812 72 192 0.0 0.0 0.00 0.00 0.00 34 1004.9
20260503224731 72 192 0.0 0.0 0.00 0.00 0.00 34 1004.9
20260503224612 72 192 0.0 0.0 0.00 0.00 0.00 34 1004.9
20260503224410 72 93 0.0 2.6 0.00 0.00 0.00 32 1005.0
20260503224204 72 157 0.0 6.1 0.00 0.00 0.00 29 1005.1
20260503224008 71 224 0.0 6.1 0.00 0.00 0.00 32 1004.9
20260503224001 71 197 0.0 6.1 0.00 0.00 0.00 29 1005.0
20260503223934 71 224 0.0 6.1 0.00 0.00 0.00 28 1005.0
20260503223602 71 251 0.0 6.1 0.00 0.00 0.00 29 1005.0
20260503223403 71 240 0.0 6.1 0.00 0.00 0.00 29 1005.1
20260503223212 71 213 0.0 5.2 0.00 0.00 0.00 29 1005.0
20260503223204 71 175 0.0 5.2 0.00 0.00 0.00 29 1005.1
20260503223007 71 175 0.0 8.7 0.00 0.00 0.00 29 1005.1
20260503222928 71 290 0.0 8.7 0.00 0.00 0.00 28 1005.1
20260503222609 71 290 0.0 8.7 0.00 0.00 0.00 28 1005.1
20260503222313 71 210 0.0 8.7 0.00 0.00 0.00 31 1005.1
20260503222211 71 209 0.0 8.7 0.00 0.00 0.00 31 1005.1
20260503222111 71 278 0.0 7.8 0.00 0.00 0.00 31 1005.2
20260503221953 72 278 0.0 9.6 0.00 0.00 0.00 31 1005.0
20260503221940 72 278 0.0 9.6 0.00 0.00 0.00 31 1005.1
20260503221922 72 278 0.0 9.6 0.00 0.00 0.00 31 1005.0
20260503221511 72 206 0.0 9.6 0.00 0.00 0.00 32 1005.0
20260503221312 72 216 0.0 9.6 0.00 0.00 0.00 30 1005.1
20260503221209 72 224 0.0 9.6 0.00 0.00 0.00 29 1005.1
20260503221111 72 278 0.0 9.6 0.00 0.00 0.00 29 1005.1
20260503221013 72 250 0.0 6.1 0.00 0.00 0.00 32 1005.1
20260503220704 72 240 0.0 6.1 0.00 0.00 0.00 32 1005.0
20260503220511 71 251 0.0 6.1 0.00 0.00 0.00 32 1005.0
20260503220311 71 144 0.0 6.1 0.00 0.00 0.00 32 1005.0
20260503220206 71 59 0.0 8.7 0.00 0.00 0.00 31 1005.0
20260503220111 71 214 0.0 8.7 0.00 0.00 0.00 31 1005.0
20260503220005 71 228 0.0 11.3 0.00 0.00 0.00 29 1005.2
20260503215941 71 235 0.0 11.3 0.00 0.00 0.00 31 1005.2
20260503215918 71 228 0.0 11.3 0.00 0.00 0.00 29 1005.2
20260503215507 71 251 0.0 11.3 0.00 0.00 0.00 29 1005.1
20260503215305 71 247 0.0 11.3 0.00 0.00 0.00 29 1005.2
20260503215210 72 252 0.0 11.3 0.00 0.00 0.00 31 1005.1
20260503215205 71 245 0.0 11.3 0.00 0.00 0.00 30 1005.2
20260503215008 71 248 0.0 5.2 0.00 0.00 0.00 36 1005.1
20260503214945 72 257 0.0 7.8 0.00 0.00 0.00 32 1005.0
20260503214918 71 248 0.0 5.2 0.00 0.00 0.00 36 1005.1
20260503214508 71 259 0.0 7.8 0.00 0.00 0.00 32 1005.1
20260503214307 72 272 0.0 7.8 0.00 0.00 0.00 33 1005.2
20260503214207 72 272 0.0 7.8 0.00 0.00 0.00 33 1005.1
20260503214059 72 272 0.0 7.8 0.00 0.00 0.00 33 1005.1
20260503213921 72 272 0.0 7.8 0.00 0.00 0.00 33 1005.1
20260503213909 72 272 0.0 7.8 0.00 0.00 0.00 33 1005.2
20260503213846 72 272 0.0 7.8 0.00 0.00 0.00 33 1005.2
20260503213557 72 165 0.0 7.8 0.00 0.00 0.00 31 1005.2
20260503213258 72 238 0.0 4.3 0.00 0.00 0.00 33 1005.3
20260503213131 72 202 0.0 5.2 0.00 0.00 0.00 34 1005.2
20260503213059 71 233 0.0 7.8 0.00 0.00 0.00 36 1005.2
20260503212900 71 233 0.0 7.8 0.00 0.00 0.00 36 1005.3
20260503212632 71 233 0.0 8.7 0.00 0.00 0.00 36 1005.2
20260503212441 71 209 0.0 9.6 0.00 0.00 0.00 36 1005.3
20260503212240 71 240 0.0 9.6 0.00 0.00 0.00 35 1005.3
20260503212128 71 274 0.0 9.6 0.00 0.00 0.00 35 1005.2
20260503212033 71 188 0.0 9.6 0.00 0.00 0.00 32 1005.4
20260503212016 71 252 0.0 9.6 0.00 0.00 0.00 33 1005.3
20260503211931 71 251 0.0 9.6 0.00 0.00 0.00 32 1005.2
20260503211842 71 261 0.0 9.6 0.00 0.00 0.00 32 1005.2
20260503211434 72 254 0.0 7.8 0.00 0.00 0.00 32 1005.3
20260503211230 72 250 0.0 7.8 0.00 0.00 0.00 34 1005.2
20260503211129 72 255 0.0 7.8 0.00 0.00 0.00 32 1005.2
20260503211032 72 209 0.0 7.8 0.00 0.00 0.00 32 1005.2
20260503210909 73 76 0.0 3.5 0.00 0.00 0.00 34 1005.3
20260503210858 73 76 0.0 3.5 0.00 0.00 0.00 34 1005.3
20260503210608 73 6 0.0 4.3 0.00 0.00 0.00 34 1005.3
20260503210402 71 114 0.0 4.3 0.00 0.00 0.00 32 1005.4
20260503210205 71 114 0.0 6.1 0.00 0.00 0.00 32 1005.4
20260503210130 71 114 0.0 6.1 0.00 0.00 0.00 32 1005.4
20260503210108 71 114 0.0 6.1 0.00 0.00 0.00 32 1005.4
20260503205858 71 234 0.0 6.1 0.00 0.00 0.00 32 1005.5
20260503205842 71 114 0.0 6.1 0.00 0.00 0.00 32 1005.4
20260503205548 71 231 0.0 6.1 0.00 0.00 0.00 34 1005.5
20260503205335 71 238 0.0 6.1 0.00 0.00 0.00 34 1005.5
20260503205135 0 0.0 0.0 0.00 0.00 0.00 1005.5
20260503205103 72 266 0.0 8.7 0.00 0.00 0.00 33 1005.5
20260503204937 72 266 0.0 8.7 0.00 0.00 0.00 33 1005.5
20260503204737 72 266 0.0 8.7 0.00 0.00 0.00 33 1005.6
20260503204602 72 266 0.0 8.7 0.00 0.00 0.00 33 1005.5
20260503204507 72 266 0.0 8.7 0.00 0.00 0.00 33 1005.5
20260503204410 72 266 0.0 8.7 0.00 0.00 0.00 33 1005.6
20260503204059 72 274 0.0 6.1 0.00 0.00 0.00 38 1005.6
20260503204036 72 180 0.0 6.1 0.00 0.00 0.00 38 1005.6
20260503203857 71 8 0.0 6.1 0.00 0.00 0.00 35 1005.6
20260503203648 71 254 0.0 6.1 0.00 0.00 0.00 35 1005.6
20260503203530 71 248 0.0 6.1 0.00 0.00 0.00 33 1005.6
20260503203446 71 245 0.0 6.1 0.00 0.00 0.00 33 1005.6
20260503203238 71 248 0.0 6.1 0.00 0.00 0.00 32 1005.7
20260503203034 71 6 0.0 4.3 0.00 0.00 0.00 35 1005.7
20260503202833 71 244 0.0 4.3 0.00 0.00 0.00 32 1005.7
20260503202736 72 266 0.0 4.3 0.00 0.00 0.00 32 1005.8
20260503202531 72 266 0.0 4.3 0.00 0.00 0.00 32 1005.9
20260503202432 72 266 0.0 4.3 0.00 0.00 0.00 32 1005.8
20260503202215 72 255 0.0 4.3 0.00 0.00 0.00 34 1005.8
20260503202022 70 221 0.0 4.3 0.00 0.00 0.00 34 1005.7
20260503202014 70 221 0.0 4.3 0.00 0.00 0.00 34 1005.8
20260503201816 70 221 0.0 4.3 0.00 0.00 0.00 34 1005.8
20260503201616 70 221 0.0 9.6 0.00 0.00 0.00 34 1005.8
20260503201518 70 221 0.0 9.6 0.00 0.00 0.00 34 1005.9
20260503201407 70 223 0.0 9.6 0.00 0.00 0.00 34 1005.9
20260503201210 71 264 0.0 9.6 0.00 0.00 0.00 35 1005.9
20260503201110 71 254 0.0 9.6 0.00 0.00 0.00 34 1006.0
20260503201014 71 254 0.0 9.6 0.00 0.00 0.00 34 1006.0
20260503200739 71 223 0.0 9.6 0.00 0.00 0.00 34 1006.1
20260503200543 71 233 0.0 4.3 0.00 0.00 0.00 32 1006.0
20260503200509 71 247 0.0 4.3 0.00 0.00 0.00 33 1006.0
20260503200333 72 45 0.0 4.3 0.00 0.00 0.00 35 1006.2
20260503200133 71 241 0.0 3.5 0.00 0.00 0.00 36 1006.1
20260503200008 71 326 0.0 3.5 0.00 0.00 0.00 32 1006.1
20260503195935 71 257 0.0 0.0 0.00 0.00 0.00 32 1006.1
20260503195719 71 7 0.0 2.6 0.00 0.00 0.00 34 1006.2
20260503195507 71 7 0.0 7.8 0.00 0.00 0.00 34 1006.2
20260503195306 71 7 0.0 7.8 0.00 0.00 0.00 34 1006.3
20260503195203 71 7 0.0 7.8 0.00 0.00 0.00 34 1006.2
20260503195002 71 7 0.0 7.8 0.00 0.00 0.00 34 1006.2
20260503194904 71 7 0.0 7.8 0.00 0.00 0.00 34 1006.2
20260503194702 71 227 0.0 8.7 0.00 0.00 0.00 36 1006.3
20260503194504 71 130 0.0 8.7 0.00 0.00 0.00 34 1006.3
20260503194447 71 10 0.0 8.7 0.00 0.00 0.00 34 1006.3
20260503194305 71 8 0.0 8.7 0.00 0.00 0.00 34 1006.3
20260503194101 71 252 0.0 8.7 0.00 0.00 0.00 36 1006.3
20260503193943 71 241 0.0 8.7 0.00 0.00 0.00 36 1006.3
20260503193902 71 233 0.0 8.7 0.00 0.00 0.00 36 1006.3
20260503193701 71 240 0.0 5.2 0.00 0.00 0.00 34 1006.2
20260503193603 71 275 0.0 5.2 0.00 0.00 0.00 34 1006.3
20260503193437 71 276 0.0 5.2 0.00 0.00 0.00 34 1006.3
20260503193302 71 274 0.0 6.1 0.00 0.00 0.00 37 1006.3
20260503193103 71 179 0.0 13.0 0.00 0.00 0.00 38 1006.3
20260503192930 71 179 0.0 13.0 0.00 0.00 0.00 38 1006.3
20260503192902 71 179 0.0 13.0 0.00 0.00 0.00 38 1006.3
20260503192725 70 292 0.0 13.0 0.00 0.00 0.00 36 1006.2
20260503192719 71 171 0.0 13.0 0.00 0.00 0.00 38 1006.2
20260503192652 70 241 0.0 13.0 0.00 0.00 0.00 36 1006.3
20260503192305 70 247 0.0 13.0 0.00 0.00 0.00 33 1006.2
20260503192226 71 247 0.0 6.1 0.00 0.00 0.00 46 1006.2
20260503192221 71 243 0.0 6.1 0.00 0.00 0.00 34 1006.2
20260503192203 71 251 0.0 7.8 0.00 0.00 0.00 34 1006.1
20260503191703 71 240 0.0 5.2 0.00 0.00 0.00 39 1006.2
20260503191502 71 102 0.0 5.2 0.00 0.00 0.00 39 1006.3
20260503191431 71 102 0.0 5.2 0.00 0.00 0.00 39 1006.3
20260503191303 71 16 0.0 5.2 0.00 0.00 0.00 39 1006.2
20260503191216 71 244 0.0 4.3 0.00 0.00 0.00 37 1006.3
20260503191200 71 285 0.0 4.3 0.00 0.00 0.00 35 1006.1
20260503190900 71 230 0.0 4.3 0.00 0.00 0.00 37 1006.3
20260503190657 71 255 0.0 4.3 0.00 0.00 0.00 40 1006.3
20260503190605 71 63 0.0 4.3 0.00 0.00 0.00 37 1006.2
20260503190434 71 63 0.0 5.2 0.00 0.00 0.00 37 1006.2
20260503190302 71 63 0.0 5.2 0.00 0.00 0.00 37 1006.3
20260503190210 70 142 0.0 5.2 0.00 0.00 0.00 42 1006.4
20260503190148 71 116 0.0 5.2 0.00 0.00 0.00 38 1006.3
20260503185836 70 34 0.0 5.2 0.00 0.00 0.00 42 1006.3
20260503185635 70 128 0.0 5.2 0.00 0.00 0.00 40 1006.4
20260503185431 70 231 0.0 4.3 0.00 0.00 0.00 38 1006.4
20260503185416 71 258 0.0 4.3 0.00 0.00 0.00 37 1006.4
20260503185232 71 92 0.0 4.3 0.00 0.00 0.00 37 1006.5
20260503185031 71 92 0.0 4.3 0.00 0.00 0.00 37 1006.4
20260503184933 71 92 0.0 4.3 0.00 0.00 0.00 37 1006.4
20260503184903 71 92 0.0 4.3 0.00 0.00 0.00 37 1006.3
20260503184630 71 92 0.0 4.3 0.00 0.00 0.00 37 1006.3
20260503184423 71 202 0.0 4.3 0.00 0.00 0.00 37 1006.5
20260503184402 71 340 0.0 5.2 0.00 0.00 0.00 37 1006.5
20260503184223 70 27 0.0 7.8 0.00 0.00 0.00 38 1006.3
20260503184017 70 244 0.0 7.8 0.00 0.00 0.00 38 1006.4
20260503183901 70 300 0.0 7.8 0.00 0.00 0.00 36 1006.4
20260503183816 70 338 0.0 7.8 0.00 0.00 0.00 40 1006.4
20260503183607 71 125 0.0 7.8 0.00 0.00 0.00 39 1006.5
20260503183403 71 265 0.0 7.8 0.00 0.00 0.00 36 1006.5
20260503183201 70 266 0.0 6.1 0.00 0.00 0.00 39 1006.5
20260503182959 70 340 0.0 6.1 0.00 0.00 0.00 39 1006.4
20260503182858 69 293 0.0 6.1 0.00 0.00 0.00 36 1006.5
20260503182758 69 159 0.0 6.1 0.00 0.00 0.00 38 1006.5
20260503182700 69 195 0.0 6.1 0.00 0.00 0.00 40 1006.6
20260503182358 69 196 0.0 6.1 0.00 0.00 0.00 40 1006.5
20260503182159 70 7 0.0 6.1 0.00 0.00 0.00 42 1006.5
20260503181958 70 250 0.0 6.1 0.00 0.00 0.00 38 1006.5
20260503181859 70 272 0.0 6.1 0.00 0.00 0.00 40 1006.6
20260503181800 70 276 0.0 6.1 0.00 0.00 0.00 39 1006.5
20260503181556 70 237 0.0 6.1 0.00 0.00 0.00 40 1006.5
20260503181355 70 237 0.0 6.1 0.00 0.00 0.00 41 1006.6
20260503181145 70 245 0.0 6.1 0.00 0.00 0.00 43 1006.6
20260503181031 70 245 0.0 6.1 0.00 0.00 0.00 40 1006.8
20260503180844 70 252 0.0 6.1 0.00 0.00 0.00 40 1006.8
20260503180731 70 286 0.0 4.3 0.00 0.00 0.00 42 1006.7
20260503180530 70 28 0.0 4.3 0.00 0.00 0.00 42 1006.6
20260503180348 70 28 0.0 4.3 0.00 0.00 0.00 42 1006.7
20260503180330 70 28 0.0 4.3 0.00 0.00 0.00 42 1006.6
20260503175904 70 25 0.0 7.8 0.00 0.00 0.00 41 1006.7
20260503175834 70 25 0.0 7.8 0.00 0.00 0.00 41 1006.8
20260503175707 70 0 0.0 7.8 0.00 0.00 0.00 40 1006.7
20260503175503 70 224 0.0 7.8 0.00 0.00 0.00 43 1006.8
20260503175355 70 357 0.0 7.8 0.00 0.00 0.00 43 1006.6
20260503175330 70 55 0.0 7.8 0.00 0.00 0.00 43 1006.6
20260503175100 70 45 0.0 7.8 0.00 0.00 0.00 41 1006.7
20260503174900 70 214 0.0 6.1 0.00 0.00 0.00 41 1006.7
20260503174829 70 190 0.0 6.1 0.00 0.00 0.00 42 1006.7
20260503174756 70 224 0.0 6.1 0.00 0.00 0.00 41 1006.8
20260503174501 70 272 0.0 6.1 0.00 0.00 0.00 45 1006.8
20260503174330 70 7 0.0 6.1 0.00 0.00 0.00 46 1006.8
20260503174300 69 7 0.0 6.1 0.00 0.00 0.00 42 1006.8
20260503174048 69 272 0.0 6.1 0.00 0.00 0.00 39 1006.8
20260503173835 69 272 0.0 6.1 0.00 0.00 0.00 39 1006.7
20260503173830 69 258 0.0 6.1 0.00 0.00 0.00 39 1006.7
20260503173635 69 343 0.0 6.1 0.00 0.00 0.00 41 1006.7
20260503173439 69 238 0.0 3.5 0.00 0.00 0.00 45 1006.8
20260503173434 69 87 0.0 4.3 0.00 0.00 0.00 45 1006.8
20260503173333 69 42 0.0 4.3 0.00 0.00 0.00 45 1006.7
20260503173034 68 268 0.0 8.7 0.00 0.00 0.00 47 1006.9
20260503172830 68 268 0.0 8.7 0.00 0.00 0.00 47 1006.8
20260503172630 68 268 0.0 9.6 0.00 0.00 0.00 47 1006.8
20260503172430 68 268 0.0 9.6 0.00 0.00 0.00 47 1006.7
20260503172332 68 268 0.0 9.6 0.00 0.00 0.00 47 1006.7
20260503172223 68 237 0.0 9.6 0.00 0.00 0.00 47 1006.8
20260503172127 68 257 0.0 9.6 0.00 0.00 0.00 45 1006.8
20260503172103 68 235 0.0 9.6 0.00 0.00 0.00 44 1007.0
20260503171806 68 254 0.0 5.2 0.00 0.00 0.00 45 1006.8
20260503171707 69 111 0.0 3.5 0.00 0.00 0.00 48 1006.8
20260503171406 69 266 0.0 6.1 0.00 0.00 0.00 47 1006.9
20260503171335 69 257 0.0 6.1 0.00 0.00 0.00 47 1006.9
20260503171207 69 233 0.0 6.1 0.00 0.00 0.00 43 1006.9
20260503171056 69 234 0.0 6.1 0.00 0.00 0.00 43 1007.0
20260503171040 69 234 0.0 6.1 0.00 0.00 0.00 43 1006.9
20260503171013 69 234 0.0 6.1 0.00 0.00 0.00 43 1007.0
20260503170604 69 234 0.0 6.1 0.00 0.00 0.00 43 1006.9
20260503170407 69 268 0.0 6.1 0.00 0.00 0.00 43 1006.9
20260503170307 68 234 0.0 5.2 0.00 0.00 0.00 45 1007.0
20260503170207 68 234 0.0 5.2 0.00 0.00 0.00 45 1006.9
20260503160136 67 188 0.0 4.3 0.00 0.00 0.00 45 1006.7
20260503160128 67 17 0.0 6.1 0.00 0.00 0.00 46 1006.7
20260503150849 66 16 0.0 4.3 0.00 0.00 0.00 49 1006.4
20260503150748 66 14 0.0 5.2 0.00 0.00 0.00 49 1006.4
20260503150650 66 13 0.0 5.2 0.00 0.00 0.00 48 1006.3
20260503150453 66 357 0.0 5.2 0.00 0.00 0.00 50 1006.4
20260503150251 65 52 0.0 5.2 0.00 0.00 0.00 48 1006.4
20260503150104 65 172 0.0 5.2 0.00 0.00 0.00 48 1006.4
20260503140149 62 31 0.0 2.6 0.00 0.00 0.00 56 1006.2
20260503131331 56 206 0.0 2.6 0.00 0.00 0.00 59 1005.6
20260503131132 56 228 0.0 4.3 0.00 0.00 0.00 58 1005.6
20260503130932 56 228 0.0 4.3 0.00 0.00 0.00 57 1005.5
20260503130730 56 224 0.0 4.3 0.00 0.00 0.00 59 1005.6
20260503130633 56 223 0.0 4.3 0.00 0.00 0.00 59 1005.6
20260503130533 55 223 0.0 4.3 0.00 0.00 0.00 59 1005.5
20260503130330 55 223 0.0 4.3 0.00 0.00 0.00 59 1005.5
20260503130138 55 233 0.0 2.6 0.00 0.00 0.00 59 1005.4
20260503130129 55 233 0.0 2.6 0.00 0.00 0.00 59 1005.5
20260503110706 53 189 0.0 4.3 0.00 0.00 0.00 55 1004.2
20260503110606 53 190 0.0 5.2 0.00 0.00 0.00 55 1004.2
20260503110508 53 199 0.0 5.2 0.00 0.00 0.00 55 1004.2
20260503110308 53 209 0.0 5.2 0.00 0.00 0.00 56 1004.2
20260503110212 54 182 0.0 5.2 0.00 0.00 0.00 55 1004.2
20260503110107 54 182 0.0 5.2 0.00 0.00 0.00 55 1004.2
20260503100234 56 217 0.0 7.8 0.00 0.00 0.00 51 1004.5
20260503090459 57 192 0.0 13.0 0.00 0.00 0.00 49 1005.0
20260503090344 57 189 0.0 13.0 0.00 0.00 0.00 49 1005.0
20260503090319 57 200 0.0 13.0 0.00 0.00 0.00 48 1005.1
20260503081551 58 216 0.0 11.3 0.00 0.00 0.00 48 1005.1
20260503081527 58 196 0.0 11.3 0.00 0.00 0.00 48 1005.2
20260503081304 58 214 0.0 11.3 0.00 0.00 0.00 48 1005.2
20260503081103 58 195 0.0 11.3 0.00 0.00 0.00 48 1005.2
20260503081051 58 195 0.0 11.3 0.00 0.00 0.00 48 1005.2
20260503080957 58 190 0.0 11.3 0.00 0.00 0.00 48 1005.3
20260503080702 58 200 0.0 8.7 0.00 0.00 0.00 48 1005.3
20260503080555 58 200 0.0 8.7 0.00 0.00 0.00 48 1005.3
20260503080502 58 196 0.0 8.7 0.00 0.00 0.00 48 1005.2
20260503080250 58 192 0.0 8.7 0.00 0.00 0.00 48 1005.3
20260503072832 59 238 0.0 8.7 0.00 0.00 0.00 49 1005.8
20260503072729 59 145 0.0 8.7 0.00 0.00 0.00 49 1005.9
20260503072549 59 183 0.0 8.7 0.00 0.00 0.00 49 1005.9
20260503072429 59 173 0.0 8.7 0.00 0.00 0.00 50 1005.9